BADR-5

Last updated on Thu Nov 21 2024 00:02:41 GMT+0000 (Coordinated Universal Time)

1 36592U 10025A 24325.22894525 .00000146 00000+0 00000+0 0 9995 2 36592 0.0489 117.6217 0004563 95.3191 315.2034 1.00271509 47463
UTC large
Height (km)
Speed (km/s)
/
Latitude / Longitude
Inclination (degrees)
Orbital Period (minutes)
Azimuth
Elevation
Range (km)
Doppler Factor

Next 0 passes for location: London (51.5072 / 0.1276)

Sorry there are no passes over London.